Regional & State Weather Roundups


020 
ASUS43 KGLD 110008
RWRGLD
GOODLAND FORECAST AREA HOURLY WEATHER ROUNDUP
NATIONAL WEATHER SERVICE GOODLAND KS
500 PM MST SUN DEC 10 2017
...OFFICIAL OBSERVATIONS...
  
CITY           SKY/WX    TMP DP  RH WIND       PRES   REMARKS
GOODLAND KS    CLEAR     39   3  22 W8        30.27F                  
HILL CITY KS   CLEAR     52  15  23 W8        30.23R                  
IMPERIAL NEB   CLEAR     51   3  14 W8        30.24S                  
MCCOOK NEB     CLEAR     54   9  16 SW7       30.22R                  
AKRON CO       CLEAR     40  -6  14 W12       30.30S                  
BURLINGTON CO  CLOUDY    41   0  18 SW5       30.30F                  
LIMON CO       CLEAR     37  -5  16 S5        30.33F                  
$$
...UNOFFICIAL OBSERVATIONS...
  
CITY           SKY/WX    TMP DP  RH WIND       PRES   REMARKS
COLBY KS       CLEAR     37  12  35 W8        30.27S                  
LENORA KS        N/A     53  32  45 W6          N/A                   
NORTON KS      CLEAR     45   1  16 W7        30.20                   
SHARON SPRINGS   N/A     45   4  18 CALM        N/A                   
TRENTON NEB      N/A     53  32  45 CALM        N/A                   
KIT CARSON CO    N/A     52   4  14 CALM        N/A                   
YUMA CO        FAIR      36   1  23 SW8       30.28S                  
$$